Miscellaneous Local Product
Issued by NWS Hastings, NE

Home | Current Version | Previous Version | Graphics & Text | Print | Product List | Glossary On
Versions: 1 2 3 4 5 6 7 8 9 10 11 12 13 14 15 16 17 18 19 20 21 22 23 24 25 26 27 28 29 30 31 32 33 34 35 36 37 38 39 40 41 42 43 44 45 46 47 48 49 50
000
AXUS43 KGID 262002
MISGRI

GID CWA HOURLY WEATHER ROUNDUP
NATIONAL WEATHER SERVICE HASTINGS NE
300 PM CDT FRI AUG 26 2016

NOTE: "FAIR" INDICATES FEW OR NO CLOUDS BELOW 12,000 FEET WITH NO
SIGNIFICANT WEATHER AND/OR OBSTRUCTIONS TO VISIBILITY.

...SOUTH CENTRAL NEBRASKA...

CITY           SKY/WX    TMP DP  RH WIND       PRES   REMARKS
GRAND ISLAND   CLOUDY    73  57  57 E14       30.09F
HASTINGS       PTSUNNY   72  59  63 NE10      30.09F
KEARNEY        CLOUDY    72  57  60 E6        30.08F
ORD            CLOUDY    73  51  46 SE10      30.09F
YORK           CLOUDY    68  63  83 SE10      30.09F
AURORA         CLOUDY    71  62  73 E6        30.09S
LEXINGTON      CLOUDY    73  52  48 SE9       30.09F
HOLDREGE       CLOUDY    70  57  64 E7        30.08F
HEBRON         CLOUDY    67  65  92 SE6       30.07F FOG

...NEBRASKA PANHANDLE...

CITY           SKY/WX    TMP DP  RH WIND       PRES   REMARKS
CHADRON        PTSUNNY   71  54  54 VRB3      30.07F
ALLIANCE       PTSUNNY   67  55  65 S10       30.10F
SCOTTSBLUFF    MOSUNNY   73  56  54 E14       30.08F
SIDNEY         MOSUNNY   63  57  81 E10       30.13F

...WESTERN AND NORTH CENTRAL NEBRASKA...

CITY           SKY/WX    TMP DP  RH WIND       PRES   REMARKS
VALENTINE      CLOUDY    69  52  54 NW8       30.13F
AINSWORTH      CLOUDY    71  53  51 S5        30.12F
ONEILL         CLOUDY    74  51  44 SE7       30.12F
BROKEN BOW     CLOUDY    71  55  56 E9        30.10F
IMPERIAL       LGT RAIN  68  59  73 NE3       30.09F
NORTH PLATTE   PTSUNNY   75  56  51 E12       30.08F
MCCOOK         MOSUNNY   75  55  49 CALM      30.07F

...EASTERN NEBRASKA...

CITY           SKY/WX    TMP DP  RH WIND       PRES   REMARKS
NORFOLK        CLOUDY    72  59  63 SE10      30.11F
SO SIOUX CITY  CLOUDY    74  59  59 E10       30.11F
TEKAMAH        CLOUDY    70  61  73 E9        30.11F
COLUMBUS       CLOUDY    70  55  60 E10       30.10F
ALBION         CLOUDY    71  59  66 E9        30.11F
OMAHA EPPLEY   CLOUDY    68  62  81 E7        30.09F
OFFUTT AFB     CLOUDY    71  63  74 E10       30.08F
MILLARD        CLOUDY    69  62  79 E3        30.09F
LINCOLN        CLOUDY    68  63  84 E6        30.09F
NEBRASKA CITY  CLOUDY    68  66  92 SE6       30.08F
BEATRICE       CLOUDY    69  65  89 SE7       30.07F
FALLS CITY     PTSUNNY   75  69  81 E6        30.05F

...NORTHERN KANSAS...

CITY           SKY/WX    TMP DP  RH WIND       PRES   REMARKS
GOODLAND       TSTM      66  61  84 S5        30.08F
HILL CITY      CLOUDY    73  61  65 SE8       30.07F
NORTON         MOCLDY    75  54  46 E8        30.07F
SMITH CENTER   CLOUDY    70  63  78 SE8       30.07F
BELOIT         CLOUDY    70  64  83 SE3       30.05F
HAYS           CLOUDY    72  57  60 SE3       30.06F
RUSSELL        CLOUDY    69  64  84 S3        30.05F
CONCORDIA      CLOUDY    73  66  78 NE3       30.06F
SALINA         CLOUDY    76  66  71 SW5       30.05F
TOPEKA         MOSUNNY   80  72  76 E6        30.02F



USA.gov is the U.S. government's official web portal to all federal, state and local government web resources and services.